Location: Bjelajci
(45.0103°N, 16.1758°E)
Time: 09:51:00
(UTC+00:00)

SeaSat 1 - Pass Details

Date: 14 July 2020
Orbit: 744 x 747 km, 108.0° (Epoch: 07 August)

Event Time Altitude Azimuth Distance (km) Brightness Sun altitude
Rises 00:35:53 0° 31° (NNE) 3,200 7.3 -19.9°
Reaches altitude 10° 00:38:13 10° 35° (NE) 2,273 6.1 -19.8°
Maximum altitude 00:43:04 56° 114° (ESE) 886 2.8 -19.4°
Enters shadow 00:45:00 34° 176° (S) 1,217 3.1 -19.3°
